Regional Weather Roundup
Issued by NWS

Home | Current Version | Previous Version | Graphics & Text | Print | Product List | Glossary On
Versions: 1 2 3 4 5 6 7 8 9 10 11 12 13 14 15 16 17 18 19 20 21 22 23 24 25 26 27 28 29 30 31 32 33 34 35 36 37 38 39 40 41 42 43 44 45 46 47 48 49 50
475
ASUS43 KDMX 211901
RWRIA

WEATHER ROUNDUP FOR IOWA
NATIONAL WEATHER SERVICE DES MOINES IA
200 PM CDT FRI JUL 21 2017

NOTE: "FAIR" INDICATES FEW OR NO CLOUDS BELOW 12,000 FEET WITH NO
SIGNIFICANT WEATHER AND/OR OBSTRUCTIONS TO VISIBILITY.

* - THESE STATIONS ARE NOT NWS STATIONS...THUS NOT UNDER NWS
QUALITY CONTROL.  THEY ALSO DO NOT REPORT WEATHER SUCH
AS PRECIPITATION OR FOG.

IAZ001>003-012>014-020>022-031>034-043>046-212000-
   NORTHWEST IOWA

CITY           SKY/WX    TMP DP  RH WIND       PRES   REMARKS
CARROLL *      CLOUDY    86  81  84 E14G20    29.82F HX 102
CHEROKEE *     CLOUDY    80  74  82 SE15G26   29.81F HX  85
DENISON *      CLOUDY    88  79  74 VRB3G12   29.83S HX 102
ORANGE CITY *  CLOUDY    79  72  78 SE9       29.84R HX  82
SHELDON *      CLOUDY    79  73  83 S7        29.83R HX  82
SIOUX CITY     CLOUDY    82  74  76 CALM      29.80R HX  88
SPENCER        CLOUDY    80  73  79 SE15G26   29.83R HX  84
STORM LAKE *   CLOUDY    77  72  83 SE15G23   29.83F
$$

IAZ055>058-069>071-079>083-090>094-212000-
   SOUTHWEST IOWA

CITY           SKY/WX    TMP DP  RH WIND       PRES   REMARKS
ATLANTIC *     SUNNY     95  75  52 SW16      29.81F HX 107
AUDUBON *      SUNNY     91  77  62 S7G16     29.82F HX 105
CLARINDA *     SUNNY     91  81  70 S13       29.85S HX 110
COUNCIL BLFS * SUNNY     93  75  55 S13G21    29.79F HX 104
CRESTON *      SUNNY     95  75  52 S20       29.86F HX 107
HARLAN  *      CLOUDY    91  77  62 S13       29.83F HX 105
LAMONI         SUNNY     92  77  61 S15       29.88F HX 105
RED OAK *      SUNNY     93  79  62 S12G20    29.81F HX 110
SHENANDOAH *   SUNNY     93  79  62 S10G17    29.82S HX 110
$$

IAZ047>049-059>061-072>074-084-212000-
   CENTRAL IOWA

CITY           SKY/WX    TMP DP  RH WIND       PRES   REMARKS
AMES           MOSUNNY   83  77  82 E16       29.85F HX  92
ANKENY *       SUNNY     91  79  66 SE9       29.83F HX 107
BOONE *        PTSUNNY   82  75  78 E15G22    29.84F HX  89
CHARITON *     SUNNY     97  73  46 S15       29.86F HX 107
DES MOINES     MOSUNNY   98  73  44 S14       29.82F HX 108
GRINNELL*      PTSUNNY   80  75  84 NE14      29.89F HX  85
KNOXVILLE *    MOSUNNY   95  73  49 S13       29.83F HX 105
MARSHALLTOWN   SUNNY     80  72  76 E15       29.87F HX  84
NEWTON *       MOSUNNY   91  81  70 E10       29.86F HX 110
PELLA *        SUNNY     96  73  47 S8        29.86F HX 106
$$

IAZ004>006-015-016-023>025-035-036-212000-
   NORTH CENTRAL IOWA

CITY           SKY/WX    TMP DP  RH WIND       PRES   REMARKS
ALGONA *       CLOUDY    72  72 100 SE20G36   29.81F
ESTHERVILLE    CLOUDY    74  72  93 SE14G26   29.85R
FORT DODGE *   CLOUDY    73  68  83 E20G26    29.87F
MASON CITY     LGT RAIN  71  67  87 SE10      29.94F
FOREST CITY *  LGT RAIN  72  68  88 SE13G20   29.86F
WEBSTER CITY * CLOUDY    73  72  94 E13       29.86F
IOWA FALLS *   CLOUDY    78  71  79 E9        29.92F HX  80
$$

IAZ007>011-017>019-026>030-037>042-050>054-066-212000-
   NORTHEAST IOWA

CITY           SKY/WX    TMP DP  RH WIND       PRES   REMARKS
CEDAR RAPIDS   MOSUNNY   82  75  79 NE16      29.91F HX  89
CHARLES CITY * RAIN      72  72 100 NW6       29.99R
CLINTON *      MOSUNNY   87  77  72 SE10      29.92F HX  99
DECORAH *      HVY RAIN  70  68  94 E9        29.90F
DUBUQUE        CLOUDY    73  70  90 NE12      29.96F
MONTICELLO *   CLOUDY    77  70  78 E10G17    29.92F
OELWEIN *      MOSUNNY   75  72  88 E14       29.91F
WATERLOO       MOSUNNY   74  68  81 E8        29.89F
$$

IAZ064-065-067-068-078-212000-
   EAST CENTRAL IOWA

CITY           SKY/WX    TMP DP  RH WIND       PRES   REMARKS
DAVENPORT      SUNNY     88  78  72 SE8       29.93F HX 101
IOWA CITY      MOSUNNY   89  79  72 SE7       29.89F HX 104
MUSCATINE *    MOSUNNY   91  79  66 S10G17    29.88F HX 107
QUAD CITIES    SUNNY     90  78  68 SE14      29.90F HX 104
$$

IAZ062-063-075>077-085>089-095>099-212000-
   SOUTHEAST IOWA

CITY           SKY/WX    TMP DP  RH WIND       PRES   REMARKS
BURLINGTON     SUNNY     92  79  65 S14       29.90F HX 108
FAIRFIELD *    SUNNY     97  73  46 S13G18    29.87F HX 107
FORT MADISON * SUNNY     91  79  66 S12       29.91F HX 107
KEOKUK *       SUNNY     95  77  55 S13       29.90F HX 109
OSKALOOSA *      N/A     96  75  50 S8        29.86F HX 107
OTTUMWA        SUNNY     97  75  49 S13G21    29.85F HX 109
WASHINGTON *   SUNNY     91  79  66 S13G20    29.89F HX 107
$$

ABBREVIATIONS USED IN REMARKS
   TC - TEMPERATURES IN CELSIUS
  WCI - WIND CHILL INDEX
   HX - HEAT INDEX
  VSB - VISIBILITY
$$





USA.gov is the U.S. government's official web portal to all federal, state and local government web resources and services.